Wind_Speed
44 41 42 50 48 41 40 40 41 45 49 38 31 27 32 41 44 48 47 48 46 47 49 47 44 41 36 37 39 41 43 45 46 49 52 57 63 64 63 62 61 61 62 61
50 46 53 47 48 50 52 53 48 46 52 46 39 30 33 37 43 46 50 53 52 52 52 54 51 49 46 42 39 43 44 45 47 47 48 51 54 59 65 66 66 65 65 63
53 56 61 61 58 59 60 55 54 48 49 46 44 33 31 36 44 47 46 50 55 54 54 55 53 50 47 49 48 48 49 51 51 49 50 51 51 51 53 59 62 63 63 65
60 65 66 64 65 76 69 76 63 51 52 47 49 27 33 39 49 55 52 49 50 56 56 59 61 61 61 59 57 56 52 53 56 57 57 57 56 56 56 53 53 55 55 56
73 73 76 76 78 78 74 80 81 75 72 61 50 52 41 52 48 52 60 62 63 62 62 64 66 64 63 61 59 60 63 61 58 59 60 63 64 63 64 60 60 61 60 61
80 84 80 82 83 85 89 83 86 90 79 78 80 76 41 57 62 67 64 71 68 67 67 63 70 73 72 71 70 68 66 69 70 68 66 64 67 71 70 70 68 67 66 67
90 84 91 88 91 92 91 97 93 91 93 83 91 97 78 79 77 79 83 84 79 77 79 75 76 80 82 81 78 78 70 69 70 73 70 71 72 72 75 76 76 74 70 70
93 85 89 95 95 95 97 99 102 104 99 101 104 106 98 95 86 89 98 101 102 101 90 88 82 84 86 86 87 84 88 88 81 77 75 75 73 79 76 76 76 76 80 81
98 96 95 94 97 100 102 105 106 113 114 118 110 109 111 103 101 100 105 102 108 108 107 96 94 88 92 91 95 95 92 90 93 91 92 90 80 80 81 79 76 82 84 84
112 116 106 104 107 110 115 113 114 119 128 129 125 122 120 105 103 107 108 110 110 112 110 105 100 97 97 100 98 98 99 102 98 99 100 100 97 90 90 91 96 96 94 92
123 120 116 117 116 123 123 124 127 128 132 137 138 134 114 108 106 110 117 116 113 110 110 109 110 111 101 99 99 96 100 107 113 109 102 104 102 103 100 100 102 105 105 101
126 132 133 132 129 134 132 136 138 135 137 141 150 152 123 116 114 118 116 118 114 113 112 114 117 117 111 105 99 103 102 104 114 122 111 105 110 109 109 109 110 110 109 108
140 146 146 148 147 141 146 143 142 139 136 145 152 149 130 131 129 123 121 119 117 115 116 122 121 120 120 115 109 105 101 103 111 118 120 110 111 115 114 116 117 117 112 116
158 155 155 156 157 154 149 137 133 136 141 142 145 147 139 137 137 137 132 128 122 126 128 127 131 123 119 122 123 119 118 117 112 115 107 112 117 118 113 117 119 121 124 120
163 162 153 151 150 147 146 141 131 123 126 145 144 140 136 128 136 135 131 122 122 128 125 123 118 113 116 113 115 114 110 104 100 102 100 98 105 103 110 116 116 112 113 117
138 137 134 131 120 128 121 114 112 117 120 126 115 112 111 110 106 108 108 105 104 92 89 90 94 92 98 104 101 102 105 108 103 101 103 105 106 109 105 104 109 110 115 116
126 124 122 122 120 126 117 106 114 108 108 116 118 113 109 106 105 105 107 109 104 98 102 99 94 89 93 100 100 99 107 111 114 114 109 111 111 112 110 109 107 104 109 112
126 126 128 125 120 116 109 109 112 114 117 116 118 117 116 110 107 110 108 111 110 106 101 101 100 87 89 90 98 102 101 102 102 105 106 106 107 115 114 113 112 111 112 109
124 124 124 122 119 112 101 103 106 110 108 109 111 110 110 109 103 106 106 107 108 107 107 106 104 97 88 92 88 93 107 108 109 108 109 108 110 113 116 114 111 110 110 110
117 119 122 120 119 115 105 107 111 110 109 111 110 108 108 108 107 103 110 108 107 104 103 103 104 103 99 95 98 92 93 100 108 112 114 113 113 114 115 115 112 113 110 109
107 110 111 109 114 110 106 104 106 109 109 108 109 109 109 108 107 105 106 109 109 108 107 106 102 101 100 100 97 97 96 99 101 103 104 109 112 111 113 116 113 113 114 114
101 103 105 110 109 104 105 108 107 109 109 107 105 104 104 103 101 101 99 99 102 105 106 106 103 101 100 99 99 99 97 99 101 103 106 108 111 110 111 112 114 113 115 114
97 97 103 104 100 104 106 104 104 104 102 98 98 97 99 97 95 94 92 91 93 96 98 101 101 100 100 101 99 95 98 97 99 101 102 101 105 105 108 115 115 114 116 115
89 94 96 98 90 97 98 96 98 98 99 96 97 97 98 98 96 93 92 90 90 91 92 94 95 94 93 99 97 95 91 91 91 94 99 99 96 96 105 111 112 114 113 112
84 89 96 89 84 98 93 92 96 96 98 97 96 95 95 93 92 92 88 89 90 89 91 92 90 89 87 91 90 94 93 89 87 88 90 93 94 95 102 104 106 112 113 113
91 88 92 88 90 97 92 95 97 97 96 93 90 90 91 91 88 89 85 86 86 85 86 86 87 87 87 87 87 91 92 88 84 82 84 86 89 90 97 101 103 108 109 106
Wind_Direction
293 296 292 287 292 291 291 284 275 273 272 279 289 282 282 289 289 290 287 291 291 289 286 285 285 280 273 277 278 275 272 269 270 270 270 267 262 260 260 262 264 265 265 266
291 294 288 290 291 293 292 293 287 274 272 276 272 283 276 277 281 282 289 295 292 290 287 289 288 286 281 275 275 278 273 269 267 266 269 271 270 267 265 263 263 264 267 268
293 289 288 290 287 289 295 295 291 283 279 283 284 273 274 279 280 283 284 288 292 291 291 291 288 284 281 278 274 273 274 274 273 272 271 271 270 269 267 265 265 265 265 266
292 290 287 294 290 289 299 293 295 291 290 279 281 268 270 277 284 285 283 282 284 286 286 287 287 285 284 283 278 274 273 272 271 274 272 270 269 268 269 268 267 267 267 266
288 290 294 292 290 288 295 292 292 293 298 294 300 281 274 280 289 286 284 287 284 279 279 281 281 282 279 276 279 280 277 272 272 270 272 274 271 272 271 271 271 270 268 268
288 284 289 291 288 291 292 292 296 296 292 297 298 293 300 293 292 291 291 290 283 281 277 274 276 281 279 276 278 280 276 274 270 269 271 272 273 270 270 271 272 271 271 272
285 286 283 288 288 286 286 295 290 288 293 286 288 297 307 300 292 296 292 292 287 278 276 280 277 274 273 276 278 279 277 273 274 269 268 271 268 269 271 269 270 269 269 272
278 283 287 286 286 286 285 289 294 284 284 292 293 297 298 296 291 288 293 295 292 287 281 279 276 279 278 275 273 274 278 279 280 277 271 272 273 268 264 267 269 274 276 272
279 280 281 285 284 286 285 286 288 287 285 288 289 291 289 289 289 287 285 283 282 284 284 287 284 274 276 276 274 271 275 271 274 275 278 277 273 271 268 263 268 272 273 270
286 286 287 285 284 289 287 282 281 283 282 280 284 283 286 283 279 281 276 272 278 283 285 287 285 284 279 277 270 270 270 272 273 268 274 275 275 274 271 269 271 272 272 271
284 285 286 283 286 285 284 283 286 282 282 281 288 289 288 282 274 277 272 274 273 273 276 282 286 285 278 272 270 266 265 266 268 267 269 267 264 265 269 267 267 268 270 270
284 283 284 283 283 283 285 285 286 285 287 284 289 291 287 278 273 272 270 271 274 276 273 274 280 282 278 272 269 265 265 264 265 266 269 262 262 262 260 260 263 265 265 266
284 283 283 284 285 285 284 286 287 285 282 285 287 288 285 277 276 276 273 272 270 274 271 272 280 279 278 277 274 265 258 262 263 262 266 264 259 260 257 257 260 264 263 263
281 279 279 280 282 283 283 282 280 280 284 281 280 282 281 276 275 275 274 271 265 269 270 266 269 271 269 272 274 271 270 269 263 263 263 262 260 259 256 256 257 260 262 263
280 278 279 278 279 281 279 277 277 278 277 274 276 277 279 278 275 274 274 274 271 270 270 269 268 269 269 269 271 273 272 269 264 262 263 261 257 256 256 256 256 257 257 259
279 278 278 280 280 279 278 278 280 275 272 275 280 279 277 277 279 277 278 277 278 274 269 267 267 268 269 268 267 265 267 269 268 266 263 262 263 261 258 254 253 256 256 257
279 279 280 281 279 277 279 281 279 280 277 276 277 277 278 279 280 279 279 279 278 277 278 276 272 264 259 260 262 262 260 260 262 263 262 261 261 263 262 255 251 255 256 258
279 278 278 281 280 281 282 280 279 278 277 278 278 278 278 278 278 277 278 278 278 277 275 275 273 266 264 261 259 257 258 257 259 260 262 262 261 262 263 262 259 259 259 259
277 278 280 280 281 283 284 283 280 278 278 278 278 278 279 279 278 277 277 276 276 277 278 277 276 272 265 265 257 257 254 254 256 256 257 258 260 262 262 262 262 262 262 261
277 277 278 280 281 282 282 279 279 278 278 278 277 277 276 276 278 278 278 277 276 275 273 272 272 272 270 265 264 257 254 254 254 255 256 257 258 259 261 263 262 263 264 265
276 276 278 280 279 279 281 278 277 276 276 277 277 277 278 279 279 278 276 277 276 276 276 275 272 271 270 269 265 262 258 253 249 250 251 253 255 256 258 260 261 262 263 264
275 275 278 277 277 280 277 276 275 277 277 277 277 278 277 276 275 275 275 274 274 274 274 274 273 272 270 267 265 262 259 256 254 251 250 250 251 253 254 257 257 258 258 259
274 275 274 275 278 278 277 279 280 279 279 281 281 279 278 278 278 278 276 275 273 272 272 272 271 271 270 269 266 263 263 260 257 256 255 250 249 250 251 252 253 254 256 257
279 277 276 276 277 278 277 279 280 280 281 280 280 281 282 282 282 281 280 278 276 275 274 271 270 269 269 270 270 270 266 264 261 260 260 259 255 250 249 251 251 253 254 255
281 277 276 280 279 277 279 280 278 279 281 282 281 281 281 281 281 279 278 276 275 274 273 273 273 273 272 271 271 271 269 265 261 259 257 258 257 253 252 251 251 252 253 254
276 279 279 279 278 279 280 279 280 281 281 282 283 283 282 280 279 278 278 277 276 276 275 274 274 273 272 271 269 267 266 265 262 259 257 256 255 251 251 251 250 251 252 252
Height
10733 10735 10730 10721 10723 10725 10727 10729 10731 10727 10721 10730 10732 10737 10734 10727 10722 10715 10714 10712 10710 10707 10705 10706 10708 10710 10711 10710 10708 10707 10707 10706 10704 10702 10702 10702 10702 10703 10704 10705 10707 10707 10706 10709
10724 10725 10713 10712 10710 10710 10711 10714 10718 10721 10714 10717 10722 10730 10726 10719 10712 10711 10706 10702 10703 10699 10696 10693 10696 10696 10699 10698 10698 10697 10695 10694 10694 10693 10692 10690 10689 10689 10690 10691 10692 10692 10693 10695
10710 10708 10701 10700 10699 10693 10695 10694 10700 10705 10702 10706 10712 10723 10719 10713 10704 10700 10700 10696 10690 10687 10687 10684 10683 10682 10683 10683 10683 10683 10683 10682 10681 10680 10679 10677 10677 10678 10678 10676 10677 10677 10678 10678
10698 10686 10687 10685 10684 10672 10687 10668 10681 10685 10690 10697 10698 10711 10712 10703 10695 10688 10685 10684 10681 10677 10676 10671 10667 10666 10666 10666 10667 10667 10667 10668 10668 10667 10667 10667 10665 10665 10663 10666 10666 10664 10664 10662
10680 10675 10670 10668 10660 10657 10666 10659 10658 10662 10666 10676 10683 10684 10703 10694 10692 10687 10678 10670 10664 10660 10658 10655 10648 10649 10646 10649 10649 10650 10652 10652 10653 10653 10653 10654 10652 10651 10648 10651 10651 10651 10650 10648
10661 10655 10657 10652 10645 10639 10636 10636 10635 10634 10640 10652 10652 10651 10702 10678 10675 10670 10665 10659 10652 10645 10640 10638 10635 10626 10624 10627 10630 10632 10634 10635 10635 10636 10637 10636 10636 10636 10636 10637 10634 10634 10635 10634
10640 10640 10638 10630 10626 10621 10611 10610 10610 10607 10608 10620 10624 10623 10663 10656 10648 10647 10640 10632 10626 10621 10619 10622 10619 10614 10611 10606 10605 10611 10616 10617 10619 10621 10620 10620 10620 10619 10619 10616 10616 10616 10617 10616
10619 10628 10615 10614 10604 10602 10597 10587 10584 10567 10578 10587 10590 10598 10637 10629 10629 10623 10616 10606 10595 10586 10590 10597 10601 10595 10595 10596 10597 10595 10592 10597 10600 10602 10600 10600 10602 10602 10599 10597 10598 10598 10599 10596
10580 10603 10598 10593 10586 10582 10580 10570 10557 10544 10541 10537 10568 10578 10589 10608 10603 10594 10586 10577 10557 10554 10557 10569 10571 10583 10570 10575 10574 10575 10577 10576 10572 10573 10573 10575 10579 10580 10581 10577 10577 10577 10576 10575
10543 10541 10580 10568 10563 10567 10550 10544 10542 10532 10511 10510 10518 10540 10546 10579 10582 10560 10544 10531 10532 10528 10532 10541 10543 10546 10548 10544 10543 10544 10548 10554 10554 10547 10546 10549 10553 10556 10558 10555 10553 10550 10547 10549
10517 10514 10542 10533 10545 10536 10523 10515 10509 10496 10488 10475 10472 10479 10518 10531 10538 10520 10503 10497 10504 10508 10506 10511 10511 10507 10514 10514 10509 10509 10511 10514 10515 10515 10518 10522 10525 10526 10524 10524 10520 10517 10519 10520
10495 10484 10483 10501 10510 10502 10495 10481 10471 10454 10458 10449 10435 10431 10466 10472 10484 10459 10468 10473 10476 10475 10475 10479 10480 10474 10470 10476 10477 10474 10471 10474 10477 10475 10483 10486 10489 10490 10494 10491 10487 10485 10488 10490
10461 10455 10448 10446 10458 10467 10451 10447 10438 10430 10417 10413 10404 10404 10426 10409 10412 10433 10433 10436 10438 10439 10444 10443 10443 10439 10431 10430 10433 10434 10441 10438 10436 10435 10436 10442 10446 10452 10452 10451 10454 10456 10457 10455
10423 10420 10423 10421 10417 10417 10412 10408 10407 10401 10392 10382 10376 10370 10380 10379 10378 10379 10389 10400 10403 10402 10404 10405 10403 10404 10399 10393 10394 10397 10399 10403 10403 10400 10398 10397 10406 10412 10416 10417 10420 10422 10422 10423
10386 10380 10376 10386 10386 10373 10367 10371 10378 10379 10365 10336 10350 10343 10333 10347 10344 10336 10336 10341 10356 10358 10354 10360 10364 10363 10361 10361 10357 10351 10356 10359 10364 10366 10365 10367 10369 10372 10380 10384 10384 10387 10389 10388
10341 10332 10329 10333 10343 10323 10325 10339 10346 10339 10333 10307 10300 10305 10302 10305 10301 10300 10298 10301 10306 10315 10317 10322 10325 10328 10324 10323 10330 10328 10320 10316 10322 10328 10330 10332 10335 10337 10341 10350 10352 10353 10355 10356
10302 10295 10292 10291 10299 10279 10288 10320 10299 10298 10292 10278 10275 10273 10271 10270 10267 10264 10265 10264 10269 10276 10275 10280 10286 10293 10296 10294 10295 10297 10296 10292 10289 10291 10296 10298 10300 10301 10303 10311 10319 10321 10323 10325
10267 10263 10254 10253 10259 10249 10276 10273 10264 10258 10250 10248 10239 10234 10233 10240 10242 10230 10235 10231 10231 10233 10239 10241 10243 10253 10253 10255 10255 10261 10259 10258 10259 10261 10262 10263 10267 10267 10270 10275 10280 10285 10289 10294
10230 10228 10217 10213 10219 10223 10242 10234 10224 10217 10216 10213 10207 10204 10200 10200 10211 10203 10202 10199 10199 10199 10197 10197 10198 10206 10215 10213 10220 10221 10222 10221 10221 10224 10227 10229 10230 10233 10234 10239 10245 10250 10255 10260
10204 10194 10184 10185 10183 10185 10206 10200 10187 10182 10177 10174 10171 10175 10173 10170 10173 10184 10163 10162 10161 10161 10164 10164 10163 10165 10169 10175 10174 10184 10187 10187 10188 10194 10196 10197 10197 10201 10200 10201 10210 10217 10221 10224
10177 10166 10160 10159 10143 10154 10162 10161 10153 10144 10145 10144 10141 10141 10140 10138 10139 10142 10139 10127 10122 10122 10120 10118 10123 10127 10128 10130 10136 10141 10145 10146 10152 10155 10159 10160 10162 10166 10169 10170 10174 10179 10182 10187
10149 10141 10136 10120 10121 10130 10126 10119 10119 10112 10109 10111 10115 10111 10103 10102 10104 10100 10103 10104 10094 10086 10083 10081 10082 10086 10089 10089 10091 10099 10103 10102 10108 10115 10120 10126 10128 10130 10134 10137 10142 10147 10150 10155
10114 10115 10100 10097 10104 10091 10083 10083 10082 10075 10077 10084 10074 10070 10063 10065 10067 10067 10067 10069 10064 10059 10054 10048 10048 10050 10049 10043 10044 10056 10058 10064 10068 10074 10080 10087 10092 10100 10102 10101 10106 10113 10116 10123
10089 10075 10069 10060 10082 10062 10058 10058 10049 10045 10040 10045 10043 10040 10034 10031 10032 10033 10032 10032 10027 10024 10020 10014 10012 10016 10021 10009 10013 10016 10024 10028 10036 10040 10042 10047 10057 10064 10065 10069 10075 10078 10086 10090
10057 10042 10027 10041 10052 10019 10031 10032 10021 10020 10014 10014 10014 10011 10007 10004 10001 9993 9998 9993 9989 9990 9986 9981 9982 9984 9988 9982 9985 9977 9978 9989 9999 10005 10009 10010 10016 10024 10029 10037 10041 10044 10050 10055
10010 10017 10007 10015 10011 9993 10005 9998 9992 9991 9989 9989 9986 9981 9973 9968 9971 9965 9969 9962 9959 9961 9958 9955 9953 9951 9952 9949 9950 9941 9941 9948 9959 9968 9972 9976 9981 9986 9991 9997 10005 10009 10014 10021